Mattoon, IL

1:20 AM CST on November 19, 2019 (GMT -0600)
Coles County Memorial

Weather History for KMTO - September, 2019

Change the Weather History Date:

Sunday, September 8, 2019

  Actual Average Record
Temperature  
Mean Temperature 67 °F 70 °F  
Max Temperature 73 °F 81 °F 98 °F (1960)
Min Temperature 60 °F 58 °F 38 °F (1986)
Degree Days  
Heating Degree Days 0 1  
Month to date heating degree days 0 2  
Since 1 July heating degree days 0 7  
Cooling Degree Days 2 5  
Month to date cooling degree days 34 50  
Year to date cooling degree days 1019 970  
Growing Degree Days 16 (Base 50)    
Moisture  
Dew Point 61 °F    
Average Humidity 77    
Maximum Humidity 93    
Minimum Humidity 61    
Precipitation  
Precipitation 0.03 in 0.11 in 2.55 in (1989)
Month to date precipitation 0.47 0.95  
Year to date precipitation 25.60 26.85  
Sea Level Pressure  
Sea Level Pressure 30.06 in    
Wind  
Wind Speed 3 mph (SE)    
Max Wind Speed 10 mph    
Max Gust Speed 17 mph    
Visibility 10 miles    
Events Rain    
T = Trace of Precipitation, MM = Missing Value Source: NWS Daily Summary

Daily Weather History Graph

Daily Weather History Graph

Search for Another Location

Airport or City:

Astronomy

Sep. 08, 2019 Rise Set
Actual Time 6:27 AM CDT 7:13 PM CDT
Civil Twilight 6:00 AM CDT 7:40 PM CDT
Nautical Twilight 5:28 AM CDT 8:12 PM CDT
Astronomical Twilight 4:54 AM CDT 8:45 PM CDT
Moon 4:20 PM CDT (9/8) 1:08 AM CDT (9/8)
Length of Visible Light 13h 40m
Length of Day
12h 45m
Waxing Gibbous, 75% of the Moon is Illuminated
Sep 8
Waxing Gibbous
Sep 13
Full
Sep 21
Last Quarter
Sep 28
New
Oct 5
First Quarter

Hourly Weather History & Observations

Time (CDT) Temp. Dew Point Humidity Pressure Visibility Wind Dir Wind Speed Gust Speed Precip Events Conditions
12:53 AM 60.1 °F 57.9 °F 93% 30.01 in 10.0 mi SSE 4.6 mph - N/A   Clear
1:53 AM 62.1 °F 59.0 °F 90% 30.01 in 10.0 mi South 3.5 mph - N/A   Overcast
2:53 AM 62.1 °F 60.1 °F 93% 30.01 in 10.0 mi Calm Calm - N/A   Mostly Cloudy
3:53 AM 62.1 °F 60.1 °F 93% 30.02 in 10.0 mi Calm Calm - N/A   Mostly Cloudy
4:53 AM 63.0 °F 60.1 °F 90% 30.03 in 10.0 mi Calm Calm - N/A   Overcast
5:53 AM 63.0 °F 60.1 °F 90% 30.07 in 10.0 mi Calm Calm - N/A   Overcast
6:53 AM 64.0 °F 61.0 °F 90% 30.11 in 10.0 mi NNW 4.6 mph - N/A   Overcast
7:53 AM 64.0 °F 62.1 °F 93% 30.04 in 6.0 mi ENE 6.9 mph - 0.01 in Rain Light Rain
8:53 AM 64.9 °F 62.1 °F 90% 30.01 in 10.0 mi SE 8.1 mph - 0.00 in   Mostly Cloudy
9:53 AM 64.9 °F 63.0 °F 93% 30.06 in 10.0 mi SSE 3.5 mph - 0.02 in   Scattered Clouds
10:53 AM 66.0 °F 63.0 °F 90% 30.10 in 10.0 mi South 4.6 mph - 0.00 in   Scattered Clouds
11:53 AM 66.9 °F 62.1 °F 84% 30.06 in 10.0 mi SSE 8.1 mph - N/A   Scattered Clouds
12:53 PM 68.0 °F 61.0 °F 78% 30.09 in 10.0 mi SW 5.8 mph - N/A   Mostly Cloudy
1:45 PM 69.1 °F 59.0 °F 70% 30.07 in 10.0 mi Calm Calm - N/A   Scattered Clouds
1:53 PM 69.1 °F 57.9 °F 68% 30.06 in 10.0 mi Calm Calm - N/A   Scattered Clouds
2:53 PM 72.0 °F 60.1 °F 66% 30.03 in 10.0 mi East 6.9 mph - N/A   Scattered Clouds
3:53 PM 73.0 °F 59.0 °F 61% 30.04 in 10.0 mi SSE 3.5 mph - N/A   Clear
4:53 PM 71.1 °F 60.1 °F 68% 30.06 in 10.0 mi SSW 5.8 mph - N/A   Overcast
5:53 PM 70.0 °F 61.0 °F 73% 30.06 in 10.0 mi South 3.5 mph - N/A   Overcast
6:53 PM 69.1 °F 63.0 °F 81% 30.06 in 10.0 mi ESE 3.5 mph - N/A   Overcast
7:53 PM 66.9 °F 62.1 °F 84% 30.06 in 10.0 mi ESE 3.5 mph - N/A   Overcast
8:53 PM 66.0 °F 62.1 °F 87% 30.09 in 10.0 mi SE 3.5 mph - N/A   Overcast
9:53 PM 66.0 °F 61.0 °F 84% 30.09 in 10.0 mi ESE 3.5 mph - N/A   Mostly Cloudy
10:53 PM 66.0 °F 61.0 °F 84% 30.10 in 10.0 mi Calm Calm - N/A   Mostly Cloudy
11:53 PM 64.9 °F 60.1 °F 84% 30.11 in 10.0 mi Calm Calm - N/A   Clear